Weather History for KGNV - April, 2014

Change the Weather History Date:

Tuesday, April 15, 2014

  Actual Average Record
Temperature  
Mean Temperature 65 °F 67 °F  
Max Temperature 80 °F 80 °F 92 °F (1936)
Min Temperature 50 °F 55 °F 38 °F (1950)
Degree Days  
Heating Degree Days 0 1  
Month to date heating degree days 5 30  
Since 1 July heating degree days 1078 1201  
Cooling Degree Days 0 4  
Month to date cooling degree days 59 47  
Year to date cooling degree days 121 133  
Growing Degree Days 16 (Base 50)    
Moisture  
Dew Point 63 °F    
Average Humidity 87    
Maximum Humidity 100    
Minimum Humidity 74    
Precipitation  
Precipitation 0.15 in 0.08 in 1.88 in (1958)
Month to date precipitation 1.23 1.47  
Year to date precipitation 16.30 12.31  
Snow  
Snow 0.00 in 0.00 in 0.00 in ()
Month to date snowfall 0.0 0.0  
Since 1 July snowfall 0.0 0.0  
Snow Depth 0.00 in    
Sea Level Pressure  
Sea Level Pressure 29.85 in    
Wind  
Wind Speed 11 mph (WSW)    
Max Wind Speed 24 mph    
Max Gust Speed 32 mph    
Visibility 9 miles    
Events Rain    
T = Trace of Precipitation, MM = Missing Value Source: NWS Daily Summary

Daily Weather History Graph

Daily Weather History Graph

Search for Another Location

Airport or City:

Trip Planner

Search our weather history database for the weather conditions in past years. The results will help you decide how hot, cold, wet, or windy it might be!

Date:

Astronomy

Apr. 15, 2014 Rise Set
Actual Time 7:02 AM EDT 7:56 PM EDT
Civil Twilight 6:38 AM EDT 8:20 PM EDT
Nautical Twilight 6:09 AM EDT 8:49 PM EDT
Astronomical Twilight 5:39 AM EDT 9:19 PM EDT
Moon 8:32 PM EDT (4/15) 7:10 AM EDT (4/15)
Length of Visible Light 13h 42m
Length of Day
12h 53m
Full, 100% of the Moon is Illuminated
Apr 15
Full
Apr 22
Last Quarter
Apr 29
New
May 6
First Quarter
May 14
Full

Hourly Weather History & Observations

Time (EDT) Temp. Dew Point Humidity Pressure Visibility Wind Dir Wind Speed Gust Speed Precip Events Conditions
12:53 AM 68.0 °F 64.0 °F 87% 29.88 in 10.0 mi SW 4.6 mph - N/A   Partly Cloudy
1:53 AM 66.0 °F 64.0 °F 93% 29.88 in 10.0 mi SW 4.6 mph - N/A   Scattered Clouds
2:53 AM 66.9 °F 64.9 °F 93% 29.86 in 10.0 mi South 4.6 mph - N/A   Clear
3:53 AM 64.9 °F 63.0 °F 93% 29.85 in 8.0 mi SE 3.5 mph - N/A   Overcast
4:53 AM 64.9 °F 64.0 °F 97% 29.83 in 8.0 mi SSE 4.6 mph - N/A   Partly Cloudy
5:53 AM 66.9 °F 64.9 °F 93% 29.82 in 10.0 mi SSE 6.9 mph - N/A   Overcast
6:37 AM 66.9 °F 64.0 °F 90% 29.83 in 10.0 mi SSE 8.1 mph - N/A   Mostly Cloudy
6:53 AM 68.0 °F 64.9 °F 90% 29.83 in 10.0 mi SSE 9.2 mph - N/A   Overcast
7:53 AM 69.1 °F 66.0 °F 90% 29.83 in 9.0 mi South 9.2 mph - N/A   Mostly Cloudy
8:53 AM 72.0 °F 66.9 °F 84% 29.83 in 10.0 mi SSW 8.1 mph - N/A   Overcast
9:53 AM 73.9 °F 69.1 °F 85% 29.84 in 10.0 mi SSW 9.2 mph - 0.00 in   Mostly Cloudy
10:53 AM 79.0 °F 69.1 °F 72% 29.83 in 10.0 mi SSW 12.7 mph 20.7 mph N/A   Mostly Cloudy
11:04 AM 79.0 °F 69.1 °F 72% 29.83 in 10.0 mi SSW 12.7 mph 21.9 mph N/A   Mostly Cloudy
11:23 AM 73.9 °F 69.1 °F 85% 29.85 in 2.0 mi WSW 12.7 mph - 0.03 in Rain Heavy Rain
11:30 AM 73.0 °F 70.0 °F 90% 29.85 in 1.0 mi WSW 10.4 mph - 0.13 in Rain Heavy Rain
11:36 AM 73.0 °F 71.1 °F 93% 29.85 in 3.0 mi WSW 11.5 mph 20.7 mph 0.14 in Rain Light Rain
11:53 AM 73.9 °F 71.1 °F 91% 29.85 in 10.0 mi SW 10.4 mph - 0.14 in   Overcast
12:53 PM 73.9 °F 70.0 °F 87% 29.82 in 9.0 mi SSW 12.7 mph - 0.00 in Rain Light Rain
1:53 PM 75.0 °F 71.1 °F 87% 29.78 in 10.0 mi SSW 9.2 mph - 0.01 in   Overcast
2:53 PM 77.0 °F 70.0 °F 79% 29.78 in 10.0 mi SW 15.0 mph 24.2 mph N/A   Mostly Cloudy
3:01 PM 75.9 °F 70.0 °F 82% 29.79 in 10.0 mi SW 15.0 mph 26.5 mph N/A   Mostly Cloudy
3:53 PM 78.1 °F 70.0 °F 76% 29.76 in 10.0 mi SW 15.0 mph 31.1 mph N/A   Overcast
4:21 PM 77.0 °F 69.1 °F 76% 29.76 in 10.0 mi WSW 18.4 mph 26.5 mph N/A   Overcast
4:32 PM 77.0 °F 68.0 °F 74% 29.76 in 10.0 mi WSW 23.0 mph 28.8 mph N/A   Overcast
4:53 PM 75.0 °F 66.9 °F 76% 29.76 in 10.0 mi WSW 20.7 mph 31.1 mph N/A   Overcast
5:12 PM 73.0 °F 68.0 °F 84% 29.78 in 9.0 mi West 15.0 mph 24.2 mph 0.00 in Rain Light Rain
5:51 PM 66.2 °F 62.6 °F 88% 29.80 in 10.0 mi NW 23.0 mph 28.8 mph 0.00 in   Overcast
5:53 PM 66.0 °F 63.0 °F 90% 29.80 in 9.0 mi NW 21.9 mph 28.8 mph 0.00 in Rain Light Rain
6:00 PM 64.9 °F 62.1 °F 90% 29.81 in 9.0 mi WNW 18.4 mph 27.6 mph 0.00 in Rain Light Rain
6:20 PM 66.0 °F 61.0 °F 84% 29.82 in 10.0 mi WNW 12.7 mph - 0.00 in   Overcast
6:37 PM 64.9 °F 59.0 °F 81% 29.84 in 10.0 mi WNW 16.1 mph 21.9 mph 0.00 in   Overcast
6:53 PM 64.9 °F 59.0 °F 81% 29.84 in 10.0 mi WNW 15.0 mph - 0.00 in   Overcast
7:32 PM 64.9 °F 59.0 °F 81% 29.86 in 10.0 mi NW 9.2 mph - N/A   Overcast
7:53 PM 64.0 °F 57.9 °F 80% 29.87 in 10.0 mi WNW 16.1 mph - N/A   Overcast
8:53 PM 59.0 °F 53.1 °F 81% 29.92 in 10.0 mi NNW 17.3 mph 23.0 mph N/A   Mostly Cloudy
9:53 PM 55.9 °F 48.0 °F 75% 29.96 in 10.0 mi NW 9.2 mph - N/A   Mostly Cloudy
10:53 PM 54.0 °F 46.9 °F 77% 29.99 in 10.0 mi NNW 15.0 mph - N/A   Mostly Cloudy
11:08 PM 53.1 °F 46.0 °F 77% 30.01 in 10.0 mi NW 11.5 mph 21.9 mph N/A   Scattered Clouds
11:16 PM 53.1 °F 46.0 °F 77% 30.01 in 10.0 mi NW 10.4 mph - N/A   Mostly Cloudy
11:53 PM 53.1 °F 46.0 °F 77% 30.03 in 10.0 mi NNW 8.1 mph - N/A   Mostly Cloudy